FBU77U FMEE-LFPO

Flight info

Callsign FBU77U
Flight time N/A
Altitude 34000
Route UVENA2N UVENA UN304 DENLI/N0502F350 UN304 APKAK/N0502F340 UN304 EGSAP/N0500F360 UN304 MOGDU UR775 SB UV790 ULONI/N0495F370 G650 RASKA/N0498F360 T513 EGMEG/N0495F370 G660 JDW/N0500F360 M686 ALPOV/N0498F380 M686 LXR P751 METRU UM872 LATAN/N0480F400 DCT LOMED DCT CERVI DCT MOLUS DCT UNKIR DCT DJL
Aircraft A35K/H-SDE2E3GHIJ3J4J5LM1ORWXY/LB1D1

Departure

Time 2026-04-26 13:55
Airport Roland Garros Airport (FMEE)

Arrival

Time N/A
Airport Paris-Orly Airport (LFPO)
Time Latitude Longitude Altitude Speed Heading
2026-04-26 13:36 -20.89034 55.51177 55 ft 0 kts 206°
2026-04-26 13:42 -20.89036 55.51176 55 ft 5 kts 206°
2026-04-26 13:42 -20.89046 55.51172 49 ft 2 kts 206°
2026-04-26 13:43 -20.89029 55.51180 55 ft 3 kts 206°
2026-04-26 13:43 -20.89013 55.51189 47 ft 2 kts 206°
2026-04-26 13:43 -20.88998 55.51197 49 ft 3 kts 222°
2026-04-26 13:43 -20.88988 55.51208 48 ft 3 kts 249°
2026-04-26 13:44 -20.88984 55.51221 48 ft 4 kts 279°
2026-04-26 13:44 -20.88989 55.51239 48 ft 4 kts 296°
2026-04-26 13:44 -20.88999 55.51258 48 ft 4 kts 298°
2026-04-26 13:44 -20.89002 55.51265 48 ft 2 kts 296°
2026-04-26 13:45 -20.88986 55.51212 48 ft 16 kts 296°
2026-04-26 13:45 -20.88982 55.51203 47 ft 0 kts 296°
2026-04-26 13:45 -20.88983 55.51204 47 ft 0 kts 298°
2026-04-26 13:47 -20.88982 55.51203 47 ft 1 kts 299°
2026-04-26 13:48 -20.88979 55.51198 48 ft 2 kts 303°
2026-04-26 13:48 -20.88973 55.51191 49 ft 1 kts 310°
2026-04-26 13:48 -20.88972 55.51189 49 ft 0 kts 311°
2026-04-26 13:48 -20.88971 55.51188 49 ft 1 kts 312°
2026-04-26 13:49 -20.88968 55.51185 50 ft 0 kts 315°
2026-04-26 13:49 -20.88974 55.51192 49 ft 3 kts 307°
2026-04-26 13:49 -20.88981 55.51202 47 ft 0 kts 305°
2026-04-26 13:50 -20.88974 55.51196 48 ft 2 kts 321°
2026-04-26 13:50 -20.88946 55.51186 48 ft 5 kts 343°
2026-04-26 13:50 -20.88905 55.51173 49 ft 7 kts 342°
2026-04-26 13:50 -20.88855 55.51156 49 ft 8 kts 342°
2026-04-26 13:51 -20.88797 55.51136 50 ft 9 kts 342°
2026-04-26 13:51 -20.88737 55.51102 45 ft 10 kts 308°
2026-04-26 13:51 -20.88713 55.51026 52 ft 11 kts 283°
2026-04-26 13:51 -20.88694 55.50937 51 ft 13 kts 283°
2026-04-26 13:52 -20.88673 55.50834 50 ft 15 kts 283°
2026-04-26 13:52 -20.88650 55.50727 51 ft 14 kts 282°
2026-04-26 13:52 -20.88631 55.50635 52 ft 11 kts 282°
2026-04-26 13:52 -20.88608 55.50559 52 ft 9 kts 304°
2026-04-26 13:53 -20.88583 55.50506 52 ft 5 kts 256°
2026-04-26 13:53 -20.88600 55.50500 51 ft 3 kts 189°
2026-04-26 13:53 -20.88610 55.50510 50 ft 2 kts 120°
2026-04-26 13:53 -20.88613 55.50534 51 ft 4 kts 101°
2026-04-26 13:54 -20.88614 55.50538 51 ft 0 kts 101°
2026-04-26 13:54 -20.88615 55.50541 50 ft 2 kts 101°
2026-04-26 13:54 -20.88647 55.50710 51 ft 54 kts 102°
2026-04-26 13:55 -20.88975 55.52363 111 ft 161 kts 102°
2026-04-26 13:55 -20.89111 55.53135 567 ft 159 kts 101°
2026-04-26 13:55 -20.87653 55.55452 1773 ft 196 kts 21°
2026-04-26 13:56 -20.86236 55.55465 1941 ft 215 kts 350°
2026-04-26 13:56 -20.84737 55.55129 2129 ft 232 kts 351°
2026-04-26 13:56 -20.83095 55.54744 2316 ft 251 kts 350°
2026-04-26 13:56 -20.81322 55.54341 2549 ft 269 kts 351°
2026-04-26 13:57 -20.79458 55.53876 2984 ft 279 kts 347°
2026-04-26 13:57 -20.77567 55.53314 3505 ft 282 kts 347°
2026-04-26 13:57 -20.75666 55.52740 4063 ft 285 kts 347°
2026-04-26 13:57 -20.73744 55.52151 4609 ft 289 kts 347°
2026-04-26 13:58 -20.71820 55.51557 5121 ft 293 kts 347°
2026-04-26 13:58 -20.69855 55.50950 5711 ft 294 kts 347°
2026-04-26 13:58 -20.67880 55.50338 6303 ft 296 kts 347°
2026-04-26 13:58 -20.65898 55.49723 6858 ft 298 kts 347°
2026-04-26 13:59 -20.63897 55.49103 7423 ft 301 kts 347°
2026-04-26 13:59 -20.61869 55.48473 8028 ft 303 kts 347°
2026-04-26 13:59 -20.59856 55.47850 8634 ft 304 kts 347°
2026-04-26 14:00 -20.53791 55.45474 10269 ft 319 kts 340°
2026-04-26 14:00 -20.51689 55.44552 10516 ft 334 kts 340°
2026-04-26 14:00 -20.50247 55.43920 10672 ft 343 kts 340°
2026-04-26 14:01 -20.47233 55.42599 10997 ft 361 kts 339°
2026-04-26 14:01 -20.44867 55.41564 11216 ft 374 kts 339°
2026-04-26 14:01 -20.42421 55.40497 11425 ft 386 kts 339°
2026-04-26 14:01 -20.39894 55.39393 11622 ft 397 kts 339°
2026-04-26 14:02 -20.37306 55.38263 11860 ft 406 kts 339°
2026-04-26 14:02 -20.34679 55.37117 12225 ft 410 kts 339°
2026-04-26 14:02 -20.32021 55.35957 12643 ft 413 kts 338°
2026-04-26 14:02 -20.29349 55.34793 13095 ft 415 kts 338°
2026-04-26 14:03 -20.26695 55.33637 13528 ft 417 kts 338°
2026-04-26 14:03 -20.23999 55.32463 13916 ft 419 kts 338°
2026-04-26 14:03 -20.21277 55.31279 14253 ft 423 kts 338°
2026-04-26 14:03 -20.18543 55.30089 14624 ft 424 kts 337°
2026-04-26 14:04 -20.15804 55.28898 15014 ft 426 kts 337°
2026-04-26 14:04 -20.13085 55.27715 15382 ft 428 kts 337°
2026-04-26 14:04 -20.10318 55.26513 15737 ft 430 kts 337°
2026-04-26 14:04 -20.07533 55.25303 16081 ft 432 kts 336°
2026-04-26 14:05 -20.04734 55.24088 16434 ft 434 kts 336°
2026-04-26 14:05 -20.01959 55.22883 16790 ft 436 kts 336°
2026-04-26 14:05 -19.99141 55.21659 17157 ft 438 kts 336°
2026-04-26 14:05 -19.96311 55.20430 17515 ft 440 kts 336°
2026-04-26 14:06 -19.93472 55.19199 17842 ft 442 kts 336°
2026-04-26 14:06 -19.90613 55.17961 18187 ft 444 kts 336°
2026-04-26 14:06 -19.87741 55.16719 18484 ft 446 kts 336°
2026-04-26 14:06 -19.84854 55.15470 18771 ft 447 kts 335°
2026-04-26 14:07 -19.81962 55.14218 19055 ft 449 kts 335°
2026-04-26 14:07 -19.79101 55.12980 19334 ft 451 kts 335°
2026-04-26 14:07 -19.76180 55.11716 19623 ft 453 kts 336°
2026-04-26 14:07 -19.73248 55.10448 19900 ft 455 kts 335°
2026-04-26 14:08 -19.70305 55.09176 20181 ft 457 kts 336°
2026-04-26 14:08 -19.67381 55.07914 20457 ft 458 kts 336°
2026-04-26 14:08 -19.64411 55.06631 20748 ft 460 kts 335°
2026-04-26 14:08 -19.61430 55.05345 21034 ft 462 kts 336°
2026-04-26 14:09 -19.58479 55.04071 21308 ft 464 kts 336°
2026-04-26 14:09 -19.55481 55.02778 21584 ft 466 kts 335°
2026-04-26 14:09 -19.52460 55.01476 21879 ft 468 kts 336°
2026-04-26 14:09 -19.49431 55.00172 22166 ft 470 kts 335°
2026-04-26 14:10 -19.46389 54.98861 22478 ft 472 kts 335°
2026-04-26 14:10 -19.43335 54.97545 22761 ft 475 kts 335°
2026-04-26 14:10 -19.40256 54.96220 23039 ft 477 kts 335°
2026-04-26 14:10 -19.37208 54.94908 23312 ft 479 kts 335°
2026-04-26 14:11 -19.30979 54.92230 23820 ft 483 kts 335°
2026-04-26 14:11 -19.27851 54.90886 24098 ft 485 kts 335°
2026-04-26 14:11 -19.24754 54.89556 24367 ft 486 kts 335°
2026-04-26 14:12 -19.21606 54.88204 24649 ft 487 kts 335°
2026-04-26 14:12 -19.18454 54.86852 24939 ft 489 kts 335°
2026-04-26 14:12 -19.15293 54.85496 25224 ft 490 kts 335°
2026-04-26 14:12 -19.12165 54.84154 25549 ft 491 kts 335°
2026-04-26 14:13 -19.05798 54.81426 26220 ft 494 kts 335°
2026-04-26 14:13 -19.02606 54.80016 26559 ft 495 kts 332°
2026-04-26 14:13 -18.99629 54.78294 26907 ft 493 kts 323°
2026-04-26 14:14 -18.96928 54.76080 27256 ft 490 kts 315°
2026-04-26 14:14 -18.94418 54.73623 27616 ft 491 kts 313°
2026-04-26 14:14 -18.91933 54.71129 27964 ft 493 kts 313°
2026-04-26 14:14 -18.89443 54.68631 28309 ft 494 kts 314°
2026-04-26 14:15 -18.86968 54.66156 28633 ft 496 kts 314°
2026-04-26 14:15 -18.84458 54.63652 28952 ft 497 kts 314°
2026-04-26 14:15 -18.81932 54.61137 29277 ft 499 kts 314°
2026-04-26 14:15 -18.79392 54.58610 29576 ft 500 kts 314°
2026-04-26 14:16 -18.76854 54.56087 29881 ft 501 kts 314°
2026-04-26 14:16 -18.74315 54.53567 30256 ft 499 kts 314°
2026-04-26 14:16 -18.71824 54.51095 30671 ft 496 kts 314°
2026-04-26 14:16 -18.69317 54.48607 31080 ft 493 kts 314°
2026-04-26 14:17 -18.66821 54.46132 31465 ft 491 kts 314°
2026-04-26 14:17 -18.64332 54.43664 31836 ft 489 kts 314°
2026-04-26 14:17 -18.61773 54.41286 32182 ft 490 kts 319°
2026-04-26 14:17 -18.58929 54.39273 32513 ft 492 kts 328°
2026-04-26 14:18 -18.55911 54.37659 32870 ft 492 kts 331°
2026-04-26 14:18 -18.52803 54.36141 33186 ft 491 kts 332°
2026-04-26 14:18 -18.49674 54.34678 33503 ft 490 kts 333°
2026-04-26 14:18 -18.46547 54.33236 33804 ft 489 kts 333°
2026-04-26 14:19 -18.43443 54.31803 33897 ft 492 kts 332°
2026-04-26 14:19 -18.38201 54.29358 33896 ft 495 kts 332°
2026-04-26 14:20 -18.30867 54.25907 33893 ft 494 kts 332°
2026-04-26 14:20 -18.25649 54.23443 33898 ft 494 kts 332°
2026-04-26 14:21 -18.18341 54.19995 33898 ft 494 kts 332°
2026-04-26 14:21 -18.13114 54.17532 33893 ft 494 kts 332°
2026-04-26 14:22 -18.06831 54.14573 33897 ft 494 kts 332°
2026-04-26 14:22 -18.00570 54.11598 33897 ft 494 kts 332°
2026-04-26 14:23 -17.94332 54.08628 33894 ft 494 kts 332°
2026-04-26 14:23 -17.88058 54.05647 33912 ft 494 kts 332°
2026-04-26 14:24 -17.81794 54.02678 33908 ft 493 kts 332°
2026-04-26 14:24 -17.75533 53.99713 33908 ft 493 kts 332°
2026-04-26 14:25 -17.69316 53.96771 33909 ft 493 kts 332°
2026-04-26 14:25 -17.63056 53.93810 33902 ft 493 kts 332°
2026-04-26 14:26 -17.56785 53.90846 33903 ft 493 kts 332°
2026-04-26 14:26 -17.50563 53.87908 33903 ft 492 kts 332°
2026-04-26 14:27 -17.44300 53.84953 33900 ft 492 kts 332°
2026-04-26 14:27 -17.38086 53.82023 33905 ft 492 kts 332°
2026-04-26 14:28 -17.31830 53.79076 33909 ft 492 kts 332°
2026-04-26 14:28 -17.25576 53.76131 33904 ft 492 kts 332°
2026-04-26 14:29 -17.19361 53.73208 33905 ft 492 kts 332°
2026-04-26 14:29 -17.13117 53.70272 33905 ft 492 kts 332°
2026-04-26 14:30 -17.06875 53.67340 33905 ft 491 kts 332°
2026-04-26 14:30 -17.00625 53.64407 33906 ft 491 kts 332°
2026-04-26 14:31 -16.94379 53.61477 33905 ft 491 kts 332°
2026-04-26 14:31 -16.88170 53.58567 33906 ft 491 kts 332°
2026-04-26 14:32 -16.81928 53.55643 33906 ft 491 kts 332°
2026-04-26 14:32 -16.75715 53.52736 33906 ft 491 kts 332°
2026-04-26 14:33 -16.69474 53.49817 33904 ft 491 kts 332°
2026-04-26 14:33 -16.63232 53.46899 33905 ft 491 kts 332°
2026-04-26 14:34 -16.56989 53.43984 33904 ft 491 kts 332°
2026-04-26 14:34 -16.50784 53.41088 33909 ft 490 kts 332°
2026-04-26 14:35 -16.44547 53.38179 33906 ft 490 kts 332°
2026-04-26 14:35 -16.38311 53.35273 33908 ft 490 kts 332°
2026-04-26 14:36 -16.32098 53.32381 33904 ft 490 kts 332°
2026-04-26 14:36 -16.25869 53.29481 33909 ft 490 kts 332°
2026-04-26 14:37 -16.19660 53.26593 33908 ft 490 kts 332°
2026-04-26 14:37 -16.13415 53.23691 33911 ft 490 kts 332°
2026-04-26 14:38 -16.07186 53.20798 33909 ft 490 kts 332°
2026-04-26 14:38 -16.00984 53.17921 33906 ft 490 kts 332°
2026-04-26 14:39 -15.94740 53.15025 33910 ft 490 kts 332°
2026-04-26 14:39 -15.88496 53.12132 33911 ft 490 kts 332°
2026-04-26 14:40 -15.82290 53.09257 33907 ft 490 kts 332°
2026-04-26 14:40 -15.76038 53.06364 33907 ft 490 kts 332°
2026-04-26 14:41 -15.69825 53.03490 33911 ft 490 kts 332°
2026-04-26 14:41 -15.63579 53.00604 33908 ft 490 kts 332°
2026-04-26 14:42 -15.57380 52.97741 33911 ft 491 kts 332°
2026-04-26 14:42 -15.51127 52.94854 33912 ft 491 kts 332°
2026-04-26 14:43 -15.44867 52.91967 33909 ft 491 kts 332°
2026-04-26 14:43 -15.38652 52.89102 33906 ft 491 kts 332°
2026-04-26 14:44 -15.32396 52.86220 33907 ft 491 kts 332°
2026-04-26 14:44 -15.26174 52.83356 33908 ft 491 kts 332°
2026-04-26 14:45 -15.19926 52.80482 33912 ft 491 kts 332°
2026-04-26 14:45 -15.13677 52.77609 33912 ft 491 kts 332°
2026-04-26 14:46 -15.07418 52.74733 33907 ft 491 kts 332°
2026-04-26 14:46 -15.01192 52.71874 33910 ft 491 kts 332°
2026-04-26 14:47 -14.94926 52.68999 33907 ft 491 kts 332°
2026-04-26 14:47 -14.88693 52.66141 33909 ft 491 kts 332°
2026-04-26 14:48 -14.82419 52.63266 33913 ft 492 kts 332°
2026-04-26 14:48 -14.76205 52.60420 33912 ft 492 kts 333°
2026-04-26 14:49 -14.69928 52.57547 33910 ft 492 kts 333°
2026-04-26 14:49 -14.63705 52.54701 33909 ft 492 kts 333°
2026-04-26 14:50 -14.57437 52.51836 33908 ft 492 kts 333°
2026-04-26 14:50 -14.51168 52.48972 33908 ft 492 kts 333°
2026-04-26 14:51 -14.44889 52.46105 33908 ft 492 kts 333°
2026-04-26 14:51 -14.38661 52.43264 33907 ft 492 kts 333°
2026-04-26 14:52 -14.32375 52.40397 33909 ft 493 kts 333°
2026-04-26 14:52 -14.26093 52.37535 33912 ft 493 kts 333°
2026-04-26 14:53 -14.19848 52.34690 33906 ft 493 kts 333°
2026-04-26 14:53 -14.13555 52.31826 33907 ft 493 kts 333°
2026-04-26 14:54 -14.07304 52.28982 33910 ft 493 kts 333°
2026-04-26 14:54 -14.01012 52.26122 33913 ft 493 kts 333°
2026-04-26 14:55 -13.94720 52.23263 33910 ft 493 kts 333°
2026-04-26 14:55 -13.88474 52.20427 33908 ft 493 kts 333°
2026-04-26 14:56 -13.82170 52.17567 33911 ft 493 kts 333°
2026-04-26 14:56 -13.75884 52.14716 33904 ft 493 kts 333°
2026-04-26 14:57 -13.69628 52.11880 33909 ft 493 kts 333°
2026-04-26 14:57 -13.63330 52.09027 33910 ft 493 kts 333°
2026-04-26 14:58 -13.57074 52.06195 33908 ft 493 kts 333°
2026-04-26 14:58 -13.50778 52.03346 33906 ft 493 kts 333°
2026-04-26 14:59 -13.44493 52.00504 33907 ft 493 kts 333°
2026-04-26 14:59 -13.38213 51.97669 33907 ft 493 kts 334°
2026-04-26 15:00 -13.31966 51.94846 33906 ft 492 kts 334°
2026-04-26 15:00 -13.25690 51.92011 33918 ft 492 kts 334°
2026-04-26 15:01 -13.19458 51.89199 33905 ft 492 kts 334°
2026-04-26 15:01 -13.13174 51.86365 33904 ft 491 kts 334°
2026-04-26 15:02 -13.06950 51.83560 33912 ft 491 kts 334°
2026-04-26 15:02 -13.00684 51.80737 33901 ft 491 kts 334°
2026-04-26 15:03 -12.94418 51.77916 33913 ft 491 kts 334°
2026-04-26 15:03 -12.88194 51.75116 33906 ft 491 kts 334°
2026-04-26 15:04 -12.81929 51.72299 33919 ft 491 kts 334°
2026-04-26 15:04 -12.75652 51.69478 33902 ft 491 kts 334°
2026-04-26 15:05 -12.69418 51.66677 33914 ft 491 kts 334°
2026-04-26 15:05 -12.63187 51.63880 33899 ft 491 kts 334°
2026-04-26 15:06 -12.56922 51.61069 33908 ft 491 kts 334°
2026-04-26 15:06 -12.50652 51.58257 33892 ft 491 kts 334°
2026-04-26 15:07 -12.41287 51.54059 33898 ft 491 kts 334°
2026-04-26 15:07 -12.35013 51.51249 33910 ft 491 kts 334°
2026-04-26 15:08 -12.29804 51.48917 33910 ft 491 kts 334°
2026-04-26 15:08 -12.22518 51.45657 33908 ft 491 kts 334°
2026-04-26 15:09 -12.17300 51.43324 33906 ft 491 kts 334°
2026-04-26 15:09 -12.11030 51.40523 33907 ft 491 kts 335°
2026-04-26 15:10 -12.05818 51.38198 33912 ft 491 kts 334°
2026-04-26 15:10 -11.98530 51.34942 33911 ft 491 kts 334°
2026-04-26 15:11 -11.92245 51.32136 33909 ft 491 kts 334°
2026-04-26 15:11 -11.85967 51.29336 33908 ft 492 kts 334°
2026-04-26 15:12 -11.79719 51.26551 33906 ft 492 kts 334°
2026-04-26 15:12 -11.73428 51.23748 33905 ft 492 kts 334°
2026-04-26 15:13 -11.67145 51.20950 33909 ft 493 kts 334°
2026-04-26 15:13 -11.60876 51.18160 33906 ft 493 kts 334°
2026-04-26 15:14 -11.54568 51.15354 33912 ft 493 kts 334°
2026-04-26 15:14 -11.48308 51.12570 33905 ft 493 kts 334°
2026-04-26 15:15 -11.41991 51.09763 33909 ft 494 kts 334°
2026-04-26 15:15 -11.35724 51.06979 33906 ft 494 kts 334°
2026-04-26 15:16 -11.29411 51.04176 33906 ft 494 kts 334°
2026-04-26 15:16 -11.23095 51.01374 33911 ft 494 kts 334°
2026-04-26 15:17 -11.17846 50.99045 33910 ft 494 kts 334°
2026-04-26 15:17 -11.10515 50.95795 33909 ft 494 kts 334°
2026-04-26 15:18 -11.04200 50.92996 33908 ft 494 kts 334°
2026-04-26 15:18 -10.97909 50.90210 33908 ft 494 kts 335°
2026-04-26 15:19 -10.91588 50.87411 33904 ft 494 kts 335°
2026-04-26 15:19 -10.85306 50.84631 33912 ft 494 kts 335°
2026-04-26 15:20 -10.78995 50.81840 33910 ft 494 kts 335°
2026-04-26 15:20 -10.72677 50.79047 33909 ft 494 kts 335°
2026-04-26 15:21 -10.66372 50.76260 33906 ft 494 kts 335°
2026-04-26 15:21 -10.60084 50.73483 33910 ft 494 kts 335°
2026-04-26 15:22 -10.53788 50.70703 33913 ft 494 kts 335°
2026-04-26 15:22 -10.47464 50.67912 33911 ft 495 kts 335°
2026-04-26 15:23 -10.41135 50.65121 33911 ft 495 kts 335°
2026-04-26 15:23 -10.34860 50.62354 33909 ft 494 kts 335°
2026-04-26 15:24 -10.28531 50.59564 33911 ft 494 kts 335°
2026-04-26 15:24 -10.22209 50.56779 33913 ft 494 kts 335°
2026-04-26 15:25 -10.16945 50.54461 33913 ft 494 kts 335°
2026-04-26 15:25 -10.09597 50.51227 33910 ft 494 kts 335°
2026-04-26 15:26 -10.03286 50.48451 33907 ft 494 kts 335°
2026-04-26 15:26 -10.00169 50.47080 34017 ft 493 kts 335°
2026-04-26 15:26 -9.97030 50.45701 34393 ft 488 kts 335°
2026-04-26 15:27 -9.93924 50.44335 34768 ft 485 kts 335°
2026-04-26 15:27 -9.90824 50.42971 34887 ft 487 kts 335°
2026-04-26 15:27 -9.84569 50.40217 34909 ft 489 kts 335°
2026-04-26 15:28 -9.78360 50.37488 34911 ft 488 kts 335°
2026-04-26 15:28 -9.72110 50.34741 34908 ft 488 kts 335°
2026-04-26 15:29 -9.65900 50.32014 34911 ft 488 kts 335°
2026-04-26 15:30 -9.53435 50.26542 34911 ft 489 kts 335°
2026-04-26 15:30 -9.47172 50.23795 34911 ft 489 kts 335°
2026-04-26 15:31 -9.37829 50.19699 34910 ft 489 kts 335°
2026-04-26 15:32 -9.29503 50.16050 34911 ft 489 kts 335°
2026-04-26 15:32 -9.22228 50.12864 34912 ft 489 kts 335°
2026-04-26 15:33 -9.15993 50.10134 34912 ft 489 kts 335°
2026-04-26 15:33 -9.09729 50.07392 34910 ft 489 kts 335°
2026-04-26 15:34 -9.03500 50.04667 34913 ft 489 kts 335°
2026-04-26 15:34 -8.97236 50.01928 34914 ft 489 kts 335°
2026-04-26 15:35 -8.90969 49.99188 34914 ft 490 kts 335°
2026-04-26 15:35 -8.84741 49.96466 34909 ft 490 kts 335°
2026-04-26 15:36 -8.78464 49.93724 34911 ft 490 kts 335°
2026-04-26 15:36 -8.72206 49.90992 34914 ft 490 kts 335°
2026-04-26 15:37 -8.65977 49.88272 34913 ft 490 kts 335°
2026-04-26 15:37 -8.59710 49.85538 34914 ft 490 kts 335°
2026-04-26 15:38 -8.53441 49.82804 34915 ft 490 kts 335°
2026-04-26 15:38 -8.47171 49.80069 34913 ft 490 kts 335°
2026-04-26 15:39 -8.40941 49.77354 34912 ft 490 kts 335°
2026-04-26 15:39 -8.35725 49.75081 34913 ft 490 kts 335°
2026-04-26 15:40 -8.28415 49.71897 34914 ft 490 kts 335°
2026-04-26 15:40 -8.22138 49.69164 34915 ft 490 kts 335°
2026-04-26 15:41 -8.15895 49.66447 34913 ft 490 kts 335°
2026-04-26 15:41 -8.09638 49.63724 34913 ft 490 kts 335°
2026-04-26 15:42 -8.03355 49.60991 34914 ft 490 kts 335°
2026-04-26 15:42 -7.97088 49.58266 34914 ft 490 kts 335°
2026-04-26 15:43 -7.90844 49.55552 34915 ft 490 kts 335°
2026-04-26 15:44 -7.81470 49.51479 34916 ft 490 kts 335°
2026-04-26 15:44 -7.72062 49.47393 34916 ft 490 kts 335°
2026-04-26 15:45 -7.62684 49.43323 34916 ft 490 kts 335°
2026-04-26 15:46 -7.53311 49.39256 34918 ft 490 kts 335°
2026-04-26 15:46 -7.48092 49.36993 34919 ft 490 kts 335°
2026-04-26 15:47 -7.37641 49.32462 34919 ft 490 kts 335°
2026-04-26 15:48 -7.31355 49.29738 34921 ft 491 kts 335°
2026-04-26 15:48 -7.25106 49.27031 34921 ft 491 kts 335°
2026-04-26 15:49 -7.18825 49.24311 34923 ft 492 kts 335°
2026-04-26 15:49 -7.12516 49.21579 34921 ft 493 kts 335°
2026-04-26 15:50 -7.06231 49.18859 34921 ft 494 kts 336°
2026-04-26 15:50 -6.99906 49.16122 34920 ft 494 kts 336°
2026-04-26 15:51 -6.93568 49.13382 34922 ft 495 kts 336°
2026-04-26 15:51 -6.87273 49.10658 34923 ft 495 kts 336°
2026-04-26 15:52 -6.80930 49.07915 34922 ft 495 kts 336°
2026-04-26 15:52 -6.74626 49.05190 34923 ft 495 kts 336°
2026-04-26 15:53 -6.68281 49.02448 34922 ft 495 kts 336°
2026-04-26 15:53 -6.61971 48.99722 34926 ft 495 kts 336°
2026-04-26 15:54 -6.55617 48.96978 34921 ft 496 kts 336°
2026-04-26 15:54 -6.49309 48.94254 34920 ft 496 kts 336°
2026-04-26 15:55 -6.42962 48.91514 34921 ft 496 kts 336°
2026-04-26 15:55 -6.36605 48.88771 34924 ft 496 kts 336°
2026-04-26 15:56 -6.30257 48.86033 34923 ft 496 kts 336°
2026-04-26 15:56 -6.23944 48.83310 34922 ft 496 kts 336°
2026-04-26 15:57 -6.17591 48.80571 34921 ft 496 kts 336°
2026-04-26 15:57 -6.11235 48.77831 34922 ft 497 kts 336°
2026-04-26 15:58 -6.05952 48.75554 34925 ft 497 kts 336°
2026-04-26 15:58 -5.99621 48.72826 34925 ft 497 kts 336°
2026-04-26 15:59 -5.93252 48.70082 34926 ft 497 kts 336°
2026-04-26 15:59 -5.86887 48.67341 34927 ft 497 kts 336°
2026-04-26 16:00 -5.80551 48.64613 34925 ft 498 kts 336°
2026-04-26 16:00 -5.74176 48.61869 34928 ft 498 kts 336°
2026-04-26 16:01 -5.67796 48.59123 34924 ft 498 kts 336°
2026-04-26 16:01 -5.61414 48.56378 34924 ft 498 kts 336°
2026-04-26 16:02 -5.55061 48.53645 34929 ft 498 kts 336°
2026-04-26 16:02 -5.48673 48.50898 34929 ft 498 kts 336°
2026-04-26 16:03 -5.42327 48.48170 34925 ft 498 kts 336°
2026-04-26 16:03 -5.35937 48.45423 34928 ft 499 kts 336°
2026-04-26 16:04 -5.29587 48.42695 34931 ft 499 kts 336°
2026-04-26 16:04 -5.23205 48.39952 34934 ft 499 kts 336°
2026-04-26 16:05 -5.16813 48.37207 34930 ft 499 kts 336°
2026-04-26 16:05 -5.10425 48.34464 34932 ft 499 kts 336°
2026-04-26 16:06 -5.04058 48.31730 34933 ft 499 kts 336°
2026-04-26 16:06 -4.97703 48.29002 34933 ft 498 kts 336°
2026-04-26 16:07 -4.91296 48.26252 34933 ft 498 kts 336°
2026-04-26 16:07 -4.84968 48.23537 34934 ft 498 kts 336°
2026-04-26 16:08 -4.78591 48.20801 34937 ft 497 kts 337°
2026-04-26 16:08 -4.72213 48.18065 34936 ft 497 kts 337°
2026-04-26 16:09 -4.65887 48.15352 34933 ft 497 kts 337°
2026-04-26 16:09 -4.59515 48.12620 34933 ft 497 kts 337°
2026-04-26 16:10 -4.53183 48.09906 34938 ft 496 kts 337°
2026-04-26 16:10 -4.46823 48.07181 34933 ft 496 kts 337°
2026-04-26 16:11 -4.40456 48.04453 34932 ft 496 kts 337°
2026-04-26 16:11 -4.34134 48.01744 34932 ft 496 kts 337°
2026-04-26 16:12 -4.27784 47.99024 34936 ft 495 kts 337°
2026-04-26 16:12 -4.18297 47.94962 34937 ft 495 kts 337°
2026-04-26 16:13 -4.11947 47.92238 34936 ft 495 kts 337°
2026-04-26 16:13 -4.05650 47.89535 34935 ft 495 kts 337°
2026-04-26 16:14 -3.99304 47.86813 34936 ft 495 kts 337°
2026-04-26 16:15 -3.89825 47.82748 34937 ft 495 kts 337°
2026-04-26 16:15 -3.83481 47.80029 34934 ft 495 kts 337°
2026-04-26 16:16 -3.73997 47.75965 34935 ft 495 kts 337°
2026-04-26 16:16 -3.67649 47.73245 34932 ft 495 kts 337°
2026-04-26 16:17 -3.61310 47.70529 34933 ft 495 kts 337°
2026-04-26 16:17 -3.54996 47.67825 34932 ft 495 kts 337°
2026-04-26 16:18 -3.45490 47.63753 34932 ft 494 kts 337°
2026-04-26 16:19 -3.36016 47.59697 34932 ft 494 kts 337°
2026-04-26 16:20 -3.26521 47.55632 34932 ft 494 kts 337°
2026-04-26 16:20 -3.17064 47.51585 34929 ft 494 kts 337°
2026-04-26 16:21 -3.10736 47.48877 34928 ft 494 kts 337°
2026-04-26 16:21 -3.04438 47.46182 34929 ft 494 kts 337°
2026-04-26 16:22 -2.98101 47.43472 34929 ft 494 kts 337°
2026-04-26 16:22 -2.91807 47.40780 34928 ft 493 kts 337°
2026-04-26 16:23 -2.85478 47.38072 34927 ft 493 kts 337°
2026-04-26 16:23 -2.79196 47.35385 34929 ft 493 kts 337°
2026-04-26 16:24 -2.72872 47.32680 34929 ft 493 kts 337°
2026-04-26 16:24 -2.66600 47.29999 34928 ft 493 kts 338°
2026-04-26 16:25 -2.60290 47.27302 34928 ft 492 kts 338°
2026-04-26 16:25 -2.53975 47.24602 34928 ft 492 kts 338°
2026-04-26 16:26 -2.48733 47.22361 34925 ft 492 kts 338°
2026-04-26 16:26 -2.41397 47.19226 34925 ft 492 kts 338°
2026-04-26 16:27 -2.35086 47.16529 34925 ft 492 kts 338°
2026-04-26 16:27 -2.28807 47.13846 34924 ft 492 kts 338°
2026-04-26 16:28 -2.22495 47.11149 34924 ft 492 kts 338°
2026-04-26 16:28 -2.16222 47.08469 34924 ft 492 kts 338°
2026-04-26 16:29 -2.09903 47.05770 34925 ft 492 kts 338°
2026-04-26 16:29 -2.03595 47.03076 34921 ft 492 kts 338°
2026-04-26 16:30 -1.97319 47.00396 34922 ft 493 kts 337°
2026-04-26 16:30 -1.90986 46.97691 34921 ft 493 kts 337°
2026-04-26 16:31 -1.84704 46.95009 34923 ft 494 kts 337°
2026-04-26 16:31 -1.78360 46.92299 34919 ft 495 kts 337°
2026-04-26 16:32 -1.73068 46.90040 34924 ft 496 kts 338°
2026-04-26 16:32 -1.65667 46.86880 34921 ft 497 kts 338°
2026-04-26 16:33 -1.59337 46.84177 34918 ft 497 kts 338°
2026-04-26 16:33 -1.52955 46.81453 34920 ft 498 kts 338°
2026-04-26 16:34 -1.46561 46.78724 34918 ft 498 kts 338°
2026-04-26 16:34 -1.40221 46.76018 34922 ft 497 kts 338°
2026-04-26 16:35 -1.33854 46.73300 34924 ft 497 kts 338°
2026-04-26 16:35 -1.27480 46.70580 34920 ft 496 kts 338°
2026-04-26 16:36 -1.21166 46.67885 34920 ft 496 kts 338°
2026-04-26 16:36 -1.14812 46.65174 34924 ft 495 kts 338°
2026-04-26 16:37 -1.08457 46.62463 34921 ft 495 kts 338°
2026-04-26 16:37 -1.03218 46.60228 34924 ft 495 kts 338°
2026-04-26 16:38 -0.95832 46.57076 34925 ft 495 kts 338°
2026-04-26 16:38 -0.89487 46.54368 34925 ft 495 kts 338°
2026-04-26 16:39 -0.83172 46.51674 34923 ft 495 kts 338°
2026-04-26 16:39 -0.76819 46.48963 34923 ft 495 kts 338°
2026-04-26 16:40 -0.70505 46.46270 34922 ft 495 kts 338°
2026-04-26 16:40 -0.64157 46.43562 34922 ft 495 kts 338°
2026-04-26 16:41 -0.57832 46.40864 34922 ft 495 kts 338°
2026-04-26 16:41 -0.51490 46.38159 34923 ft 495 kts 338°
2026-04-26 16:42 -0.45184 46.35469 34920 ft 495 kts 338°
2026-04-26 16:42 -0.38834 46.32761 34920 ft 495 kts 338°
2026-04-26 16:43 -0.32483 46.30051 34918 ft 495 kts 338°
2026-04-26 16:43 -0.26196 46.27370 34923 ft 494 kts 338°
2026-04-26 16:44 -0.19859 46.24667 34922 ft 495 kts 338°
2026-04-26 16:44 -0.14586 46.22401 34918 ft 495 kts 338°
2026-04-26 16:45 -0.07227 46.19166 34919 ft 496 kts 338°
2026-04-26 16:45 -0.01979 46.16856 34922 ft 496 kts 338°
2026-04-26 16:46 0.05371 46.13632 34922 ft 493 kts 337°
2026-04-26 16:46 0.10625 46.11331 34922 ft 491 kts 337°
2026-04-26 16:47 0.16853 46.08604 34921 ft 491 kts 337°
2026-04-26 16:47 0.23128 46.05857 34923 ft 491 kts 337°
2026-04-26 16:48 0.29354 46.03132 34921 ft 491 kts 337°
2026-04-26 16:48 0.35642 46.00379 34919 ft 491 kts 337°
2026-04-26 16:49 0.41879 45.97648 34922 ft 492 kts 337°
2026-04-26 16:49 0.48159 45.94898 34922 ft 492 kts 337°
2026-04-26 16:50 0.54401 45.92165 35119 ft 489 kts 337°
2026-04-26 16:50 0.57523 45.90803 35475 ft 486 kts 338°
2026-04-26 16:50 0.60634 45.89461 35776 ft 484 kts 338°
2026-04-26 16:51 0.63734 45.88133 35907 ft 486 kts 338°
2026-04-26 16:51 0.66825 45.86812 35920 ft 489 kts 338°
2026-04-26 16:51 0.73085 45.84133 35918 ft 488 kts 338°
2026-04-26 16:52 0.78289 45.81901 35921 ft 488 kts 338°
2026-04-26 16:52 0.85590 45.78767 35917 ft 488 kts 338°
2026-04-26 16:53 0.91809 45.76096 35916 ft 489 kts 338°
2026-04-26 16:53 0.98056 45.73414 35916 ft 489 kts 338°
2026-04-26 16:54 1.04321 45.70724 35916 ft 489 kts 338°
2026-04-26 16:54 1.10544 45.68053 35916 ft 489 kts 338°
2026-04-26 16:55 1.16770 45.65379 35916 ft 489 kts 338°
2026-04-26 16:55 1.23036 45.62688 35915 ft 489 kts 338°
2026-04-26 16:56 1.32390 45.58671 35914 ft 489 kts 338°
2026-04-26 16:57 1.38652 45.55982 35919 ft 489 kts 338°
2026-04-26 16:57 1.48029 45.51954 35919 ft 490 kts 338°
2026-04-26 16:58 1.53252 45.49711 35917 ft 490 kts 338°
2026-04-26 16:59 1.63704 45.45221 35914 ft 490 kts 338°
2026-04-26 17:00 1.76217 45.39845 35913 ft 490 kts 338°
2026-04-26 17:00 1.85587 45.35819 35919 ft 490 kts 338°
2026-04-26 17:01 1.91867 45.33120 35916 ft 489 kts 338°
2026-04-26 17:01 1.98123 45.30503 35917 ft 489 kts 342°
2026-04-26 17:02 2.04745 45.29151 35921 ft 486 kts 355°
2026-04-26 17:02 2.11507 45.28695 35922 ft 486 kts 358°
2026-04-26 17:03 2.18231 45.28385 35920 ft 486 kts 358°
2026-04-26 17:03 2.24990 45.28070 35918 ft 486 kts 358°
2026-04-26 17:04 2.31761 45.27731 35916 ft 486 kts 358°
2026-04-26 17:04 2.38482 45.27383 35914 ft 485 kts 358°
2026-04-26 17:05 2.45245 45.27032 35913 ft 485 kts 358°
2026-04-26 17:05 2.51958 45.26685 35913 ft 485 kts 358°
2026-04-26 17:06 2.58707 45.26336 35909 ft 485 kts 358°
2026-04-26 17:06 2.65447 45.25987 35914 ft 484 kts 358°
2026-04-26 17:07 2.72150 45.25641 35918 ft 484 kts 358°
2026-04-26 17:07 2.78879 45.25293 35914 ft 483 kts 358°
2026-04-26 17:08 2.85608 45.24945 35904 ft 483 kts 358°
2026-04-26 17:08 2.92297 45.24600 35912 ft 483 kts 358°
2026-04-26 17:09 2.97891 45.24310 35916 ft 483 kts 358°
2026-04-26 17:09 3.05752 45.23904 35906 ft 483 kts 357°
2026-04-26 17:10 3.12420 45.23559 35907 ft 483 kts 357°
2026-04-26 17:10 3.19148 45.23211 35912 ft 483 kts 357°
2026-04-26 17:11 3.25832 45.22865 35910 ft 483 kts 357°
2026-04-26 17:11 3.32562 45.22517 35910 ft 483 kts 357°
2026-04-26 17:12 3.42605 45.21997 35908 ft 483 kts 357°
2026-04-26 17:13 3.52642 45.21478 35916 ft 483 kts 357°
2026-04-26 17:14 3.62689 45.20958 35911 ft 483 kts 357°
2026-04-26 17:14 3.72773 45.20435 35912 ft 483 kts 357°
2026-04-26 17:15 3.82835 45.19914 35910 ft 483 kts 357°
2026-04-26 17:16 3.89568 45.19565 35909 ft 483 kts 357°
2026-04-26 17:16 3.96256 45.19219 35902 ft 484 kts 357°
2026-04-26 17:17 4.02992 45.18870 35906 ft 484 kts 357°
2026-04-26 17:17 4.09690 45.18522 35903 ft 484 kts 357°
2026-04-26 17:18 4.16438 45.18173 35902 ft 485 kts 357°
2026-04-26 17:18 4.23199 45.17822 35906 ft 485 kts 358°
2026-04-26 17:19 4.33300 45.17298 35903 ft 486 kts 358°
2026-04-26 17:19 4.40064 45.16947 35905 ft 486 kts 358°
2026-04-26 17:20 4.44548 45.16715 35899 ft 486 kts 358°
2026-04-26 17:20 4.53551 45.16248 35899 ft 486 kts 358°
2026-04-26 17:21 4.60326 45.15896 35897 ft 486 kts 358°
2026-04-26 17:21 4.67052 45.15547 35902 ft 486 kts 358°
2026-04-26 17:22 4.73815 45.15196 35902 ft 486 kts 358°
2026-04-26 17:22 4.80527 45.14847 35907 ft 486 kts 358°
2026-04-26 17:23 4.87298 45.14496 35905 ft 486 kts 358°
2026-04-26 17:23 4.94050 45.14145 35901 ft 486 kts 358°
2026-04-26 17:24 5.00771 45.13796 35905 ft 486 kts 358°
2026-04-26 17:24 5.07541 45.13379 35904 ft 487 kts 354°
2026-04-26 17:25 5.14162 45.12081 35903 ft 487 kts 348°
2026-04-26 17:25 5.20782 45.10515 35905 ft 488 kts 347°
2026-04-26 17:26 5.27394 45.08905 35902 ft 488 kts 347°
2026-04-26 17:26 5.33949 45.07320 35906 ft 488 kts 348°
2026-04-26 17:27 5.40562 45.05732 35919 ft 488 kts 348°
2026-04-26 17:27 5.47199 45.04142 35912 ft 490 kts 348°
2026-04-26 17:28 5.53806 45.02561 35914 ft 490 kts 348°
2026-04-26 17:28 5.60454 45.00967 35910 ft 490 kts 348°
2026-04-26 17:29 5.64855 44.99912 35914 ft 490 kts 348°
2026-04-26 17:29 5.73700 44.97791 35916 ft 490 kts 348°
2026-04-26 17:30 5.80341 44.96198 35914 ft 490 kts 348°
2026-04-26 17:30 5.86933 44.94616 35915 ft 490 kts 348°
2026-04-26 17:31 5.93569 44.93023 35915 ft 490 kts 348°
2026-04-26 17:31 6.00174 44.91438 35913 ft 490 kts 348°
2026-04-26 17:32 6.06816 44.89843 35919 ft 489 kts 348°
2026-04-26 17:32 6.13455 44.88248 35916 ft 489 kts 348°
2026-04-26 17:33 6.20045 44.86665 35920 ft 489 kts 348°
2026-04-26 17:34 6.29995 44.84274 35918 ft 489 kts 348°
2026-04-26 17:34 6.36584 44.82690 35925 ft 489 kts 348°
2026-04-26 17:35 6.43218 44.81094 35923 ft 489 kts 348°
2026-04-26 17:35 6.49812 44.79508 35925 ft 489 kts 348°
2026-04-26 17:36 6.55324 44.78182 35928 ft 489 kts 348°
2026-04-26 17:36 6.61956 44.76586 35926 ft 488 kts 348°
2026-04-26 17:37 6.68543 44.75001 35930 ft 489 kts 348°
2026-04-26 17:37 6.75172 44.73413 35930 ft 489 kts 348°
2026-04-26 17:38 6.85085 44.71063 35936 ft 489 kts 348°
2026-04-26 17:38 6.91716 44.69490 35945 ft 489 kts 348°
2026-04-26 17:39 6.98302 44.67926 35947 ft 489 kts 348°
2026-04-26 17:39 7.04920 44.66353 35952 ft 489 kts 348°
2026-04-26 17:40 7.10439 44.65041 35955 ft 489 kts 348°
2026-04-26 17:40 7.18183 44.63200 35953 ft 489 kts 348°
2026-04-26 17:41 7.24767 44.61634 35955 ft 489 kts 348°
2026-04-26 17:41 7.31412 44.60054 35959 ft 489 kts 348°
2026-04-26 17:42 7.38007 44.58484 35963 ft 489 kts 348°
2026-04-26 17:42 7.44639 44.56905 35959 ft 489 kts 348°
2026-04-26 17:43 7.51266 44.55327 35957 ft 488 kts 348°
2026-04-26 17:43 7.57863 44.53756 35958 ft 488 kts 348°
2026-04-26 17:44 7.64484 44.52179 35955 ft 488 kts 348°
2026-04-26 17:44 7.71067 44.50609 35962 ft 488 kts 348°
2026-04-26 17:45 7.77687 44.49031 35957 ft 488 kts 348°
2026-04-26 17:45 7.84312 44.47451 35957 ft 488 kts 348°
2026-04-26 17:46 7.90896 44.45880 35955 ft 488 kts 348°
2026-04-26 17:46 7.97521 44.44299 35958 ft 488 kts 348°
2026-04-26 17:47 8.03025 44.42985 35958 ft 488 kts 348°
2026-04-26 17:47 8.10723 44.41146 35954 ft 487 kts 348°
2026-04-26 17:48 8.17332 44.39568 35957 ft 487 kts 348°
2026-04-26 17:48 8.23890 44.38001 35959 ft 487 kts 348°
2026-04-26 17:49 8.30498 44.36421 35957 ft 487 kts 348°
2026-04-26 17:49 8.37063 44.34851 35956 ft 487 kts 348°
2026-04-26 17:50 8.43670 44.33270 35955 ft 487 kts 348°
2026-04-26 17:50 8.50280 44.31688 35956 ft 487 kts 348°
2026-04-26 17:51 8.56847 44.30116 35961 ft 487 kts 348°
2026-04-26 17:51 8.63454 44.28534 35960 ft 487 kts 348°
2026-04-26 17:52 8.70021 44.26961 35964 ft 487 kts 348°
2026-04-26 17:52 8.76621 44.25379 35968 ft 487 kts 348°
2026-04-26 17:53 8.83229 44.23795 35976 ft 487 kts 348°
2026-04-26 17:54 8.93100 44.21430 35985 ft 487 kts 348°
2026-04-26 17:54 8.99740 44.20006 35982 ft 487 kts 349°
2026-04-26 17:55 9.06401 44.18672 35987 ft 487 kts 349°
2026-04-26 17:55 9.13006 44.17330 35991 ft 487 kts 349°
2026-04-26 17:56 9.19661 44.15953 36001 ft 487 kts 349°
2026-04-26 17:57 9.32935 44.13190 36013 ft 487 kts 349°
2026-04-26 17:57 9.39545 44.11814 36015 ft 486 kts 349°
2026-04-26 17:58 9.52721 44.08763 36015 ft 488 kts 340°
2026-04-26 17:59 9.62056 44.04558 36015 ft 488 kts 336°
2026-04-26 17:59 9.68194 44.01597 36015 ft 488 kts 336°
2026-04-26 18:00 9.74308 43.98651 36012 ft 488 kts 336°
2026-04-26 18:00 9.80450 43.95710 36010 ft 488 kts 336°
2026-04-26 18:01 9.86556 43.92793 36004 ft 487 kts 336°
2026-04-26 18:01 9.92719 43.89848 35994 ft 487 kts 336°
2026-04-26 18:02 9.97813 43.87412 35992 ft 487 kts 336°
2026-04-26 18:02 10.04943 43.84001 35984 ft 486 kts 336°
2026-04-26 18:03 10.11089 43.81060 35970 ft 486 kts 336°
2026-04-26 18:03 10.17180 43.78143 35964 ft 486 kts 336°
2026-04-26 18:04 10.23320 43.75202 35959 ft 486 kts 336°
2026-04-26 18:05 10.32476 43.70813 35946 ft 486 kts 336°
2026-04-26 18:05 10.38562 43.67895 35940 ft 486 kts 336°
2026-04-26 18:06 10.44689 43.64956 35932 ft 486 kts 336°
2026-04-26 18:06 10.50816 43.62015 35929 ft 486 kts 336°
2026-04-26 18:07 10.56903 43.59087 35924 ft 486 kts 335°
2026-04-26 18:07 10.62961 43.56012 35921 ft 486 kts 334°
2026-04-26 18:08 10.68956 43.52902 35919 ft 486 kts 334°
2026-04-26 18:08 10.74989 43.49792 35916 ft 486 kts 334°
2026-04-26 18:09 10.81036 43.46694 35916 ft 485 kts 334°
2026-04-26 18:09 10.87079 43.43603 35915 ft 485 kts 334°
2026-04-26 18:10 10.93090 43.40527 35913 ft 485 kts 334°
2026-04-26 18:10 10.99135 43.37431 35913 ft 485 kts 334°
2026-04-26 18:11 11.05169 43.34339 35917 ft 485 kts 334°
2026-04-26 18:11 11.11170 43.31262 35919 ft 485 kts 334°
2026-04-26 18:12 11.17214 43.28162 35919 ft 485 kts 334°
2026-04-26 18:12 11.23216 43.25082 35919 ft 485 kts 334°
2026-04-26 18:13 11.29251 43.21983 35922 ft 485 kts 334°
2026-04-26 18:13 11.35283 43.18885 35925 ft 485 kts 334°
2026-04-26 18:14 11.41303 43.15854 35924 ft 484 kts 335°
2026-04-26 18:14 11.47406 43.12925 35923 ft 484 kts 336°
2026-04-26 18:15 11.53524 43.10028 35922 ft 484 kts 338°
2026-04-26 18:15 11.59891 43.07878 35925 ft 483 kts 344°
2026-04-26 18:16 11.66312 43.05987 35932 ft 483 kts 345°
2026-04-26 18:16 11.76034 43.03187 35932 ft 483 kts 345°
2026-04-26 18:17 11.82467 43.01321 35935 ft 483 kts 345°
2026-04-26 18:17 11.88935 42.99436 35940 ft 483 kts 344°
2026-04-26 18:18 11.95412 42.97547 35939 ft 483 kts 344°
2026-04-26 18:18 12.01846 42.95668 35940 ft 483 kts 344°
2026-04-26 18:19 12.08319 42.93778 35945 ft 483 kts 344°
2026-04-26 18:19 12.14747 42.91901 35937 ft 483 kts 344°
2026-04-26 18:20 12.21226 42.90008 35936 ft 483 kts 344°
2026-04-26 18:20 12.25507 42.88757 35930 ft 483 kts 344°
2026-04-26 18:21 12.34133 42.86233 35918 ft 483 kts 344°
2026-04-26 18:21 12.40560 42.84353 35914 ft 483 kts 344°
2026-04-26 18:22 12.47029 42.82458 35908 ft 483 kts 344°
2026-04-26 18:22 12.53472 42.80571 35902 ft 483 kts 344°
2026-04-26 18:23 12.59934 42.78677 35900 ft 483 kts 344°
2026-04-26 18:23 12.66327 42.76651 35895 ft 483 kts 342°
2026-04-26 18:24 12.72715 42.74510 35891 ft 483 kts 342°
2026-04-26 18:24 12.79122 42.72377 35887 ft 483 kts 342°
2026-04-26 18:25 12.85495 42.70280 35882 ft 483 kts 342°
2026-04-26 18:25 12.90862 42.68521 35883 ft 482 kts 342°
2026-04-26 18:26 12.97228 42.66435 35881 ft 482 kts 342°
2026-04-26 18:26 13.03581 42.64306 35872 ft 482 kts 339°
2026-04-26 18:27 13.09458 42.61012 35879 ft 482 kts 325°
2026-04-26 18:27 13.14780 42.56866 35877 ft 482 kts 322°
2026-04-26 18:28 13.20042 42.52554 35868 ft 482 kts 322°
2026-04-26 18:28 13.25289 42.48248 35867 ft 482 kts 322°
2026-04-26 18:29 13.30528 42.43977 35869 ft 483 kts 322°
2026-04-26 18:29 13.35801 42.39691 35865 ft 483 kts 322°
2026-04-26 18:30 13.41042 42.35431 35865 ft 483 kts 322°
2026-04-26 18:30 13.46322 42.31136 35864 ft 483 kts 322°
2026-04-26 18:31 13.51590 42.26847 35864 ft 483 kts 322°
2026-04-26 18:31 13.56826 42.22582 35868 ft 483 kts 322°
2026-04-26 18:32 13.62112 42.18274 35873 ft 484 kts 322°
2026-04-26 18:32 13.67365 42.13991 35871 ft 484 kts 322°
2026-04-26 18:33 13.72642 42.09655 35871 ft 485 kts 322°
2026-04-26 18:33 13.77907 42.05309 35868 ft 485 kts 322°
2026-04-26 18:34 13.83166 42.00972 35863 ft 484 kts 322°
2026-04-26 18:34 13.88402 41.96657 35864 ft 484 kts 322°
2026-04-26 18:35 13.93665 41.92318 35862 ft 484 kts 322°
2026-04-26 18:35 13.98930 41.87975 35861 ft 484 kts 322°
2026-04-26 18:36 14.04148 41.83668 35859 ft 483 kts 322°
2026-04-26 18:36 14.09404 41.79326 35858 ft 483 kts 322°
2026-04-26 18:37 14.14641 41.74998 35857 ft 483 kts 322°
2026-04-26 18:37 14.19899 41.70650 35857 ft 483 kts 322°
2026-04-26 18:38 14.25126 41.66326 35856 ft 484 kts 322°
2026-04-26 18:38 14.30291 41.62049 35856 ft 484 kts 322°